Miscellaneous Local Product
Issued by NWS North Platte, NE

Home | Current Version | Previous Version | Graphics & Text | Print | Product List | Glossary On
Versions: 1 2 3 4 5 6 7 8 9 10 11 12 13 14 15 16 17 18 19 20 21 22 23 24 25 26 27 28 29 30 31 32 33 34 35 36 37 38 39 40 41 42 43 44 45 46 47 48 49 50
060
AXUS43 KLBF 240510
MISLBF


WESTERN AND NORTH CENTRAL NEBRASKA HOURLY WEATHER ROUNDUP
NATIONAL WEATHER SERVICE NORTH PLATTE NE
1200 AM CDT SUN SEP 24 2017

NOTE: "FAIR" INDICATES FEW OR NO CLOUDS BELOW 12,000 FEET WITH NO
SIGNIFICANT WEATHER AND/OR OBSTRUCTIONS TO VISIBILITY.

NOTE: STATIONS NOT REPORTING VARIABLES SUCH AS SKY/WEATHER OR
PRESSURE ARE PROVIDED BY RAWS AND APRS NETWORKS AND ARE NOT UNDER
NATIONAL WEATHER SERVICE QUALITY CONTROL.

...OBSERVATIONS IN AND NEAR THE EASTERN PANHANDLE OF NEBRASKA...

CITY           SKY/WX    TMP DP  RH WIND       PRES   REMARKS
PINE RIDGE     LGT RAIN  46  46 100 N7        29.98S
GORDON         LGT RAIN  46  45  94 NW8       29.96F
CHADRON        CLOUDY    46  44  93 N7        29.98S
ALLIANCE       LGT RAIN  45  43  93 N9        29.96F
SIDNEY         LGT RAIN  45  44  97 N13       29.98F
CRESCENT LAKE    N/A     45  45 100 N9G20       N/A
$$

...OBSERVATIONS IN NORTHERN NEBRASKA AND FAR SOUTHERN SOUTH DAKOTA...

CITY           SKY/WX    TMP DP  RH WIND       PRES   REMARKS
WINNER         RAIN      52  51  97 NW8       29.93F FOG
VALENTINE      LGT RAIN  51  49  92 N8        29.92F
THEDFORD       RAIN      50  50  97 NE6       29.93S
AINSWORTH      HVY RAIN  50  50 100 NW7       29.94R
O`NEILL        CLOUDY    55  55 100 NE3       29.90R
ORD            CLOUDY    57  55  93 NW5       29.88R
BROKEN BOW     LGT RAIN  55  54  96 N9        29.91R
HALSEY           N/A     50  50  99 NW5G12      N/A
BUTTE            N/A     52  51  97 N5G12       N/A
CHAMBERS         N/A     56  55  98 CALM        N/A
EWING            N/A     56  55  95 E3          N/A
$$

...OBSERVATIONS IN SOUTHWEST NEBRASKA AND FAR NORTHEAST COLORADO...

CITY           SKY/WX    TMP DP  RH WIND       PRES   REMARKS
WRAY           RAIN     N/A N/A N/A NW14      29.92R
HOLYOKE        DRIZZLE   52  48  87 N15G21    29.94R
IMPERIAL       LGT RAIN  53  51  93 N12       29.89F
OGALLALA       RAIN      52  50  92 N10       29.93S
NORTH PLATTE   LGT RAIN  53  52  96 E3        29.91S
MCCOOK         HVY RAIN  57  57 100 NE6       29.89R FOG
LEXINGTON      LGT RAIN  58  56  93 N6        29.90F
STAPLETON        N/A     49  48  97 NE3         N/A
CALLAWAY         N/A     54  53  96 W9          N/A
$$

...OBSERVATIONS IN CENTRAL LINCOLN COUNTY AREA...

CITY           SKY/WX    TMP DP  RH WIND       PRES   REMARKS
N.P. AIRPORT   LGT RAIN  53  52  96 E3        29.91S
N.P. DOWNTOWN    N/A     52  51  97 E3          N/A
N.P. SOUTHEAST   N/A     51  50  96 CALM        N/A
N.P. HILLCREST   N/A     52  51  97 E14         N/A
$$

...SOME OBSERVATIONS FROM AROUND THE REGION...

CITY           SKY/WX    TMP DP  RH WIND       PRES   REMARKS
DENVER         CLOUDY    45  43  93 NE7       29.99S
LIMON            N/A    N/A N/A N/A MISG      29.93F
ASPEN          CLOUDY    36  34  92 S6        29.94S WCI  31
LARAMIE        CLOUDY    40  37  89 SE17      29.98R WCI  31
CASPER         CLOUDY    38  36  92 N15       30.01F WCI  29
CHEYENNE       CLOUDY    42  40  92 VRB5      29.99R
SCOTTSBLUFF    LGT RAIN  46  42  86 CALM      30.00R
GRAND ISLAND   PTCLDY    59  57  93 N5        29.88R
OMAHA          MOCLDY    79  66  64 S9        29.90S
SIOUX FALLS    CLOUDY    60  58  92 NE10      29.92F
PIERRE         LGT RAIN  51  50  96 N8        29.92F
BISMARCK       LGT RAIN  49  48  97 N10       30.05F FOG
KANSAS CITY    CLEAR     73  67  81 SE9       29.96S
HILL CITY      CLOUDY    69  63  81 W17G24    29.89R
WICHITA        CLEAR     76  65  68 SE12      29.90S
DODGE CITY     CLOUDY    75  59  57 SE20      29.88R
OKLAHOMA CITY  PTCLDY    75  65  70 SE9       29.90S
DALLAS         PTCLDY    83  66  56 SE13      29.86F
$$




USA.gov is the U.S. government's official web portal to all federal, state and local government web resources and services.